Location: Unspecified
(0.0000°N, 0.0000°E)
Time: 14:07:24
(UTC+00:00)

LightSail 2 - Visible Passes

Search period start: 15 August 2020 00:00
Search period end: 25 August 2020 00:00
Orbit: 699 x 712 km, 24.0° (Epoch: 15 August)

Date Brightness Start Highest point End Pass type
(mag) Time Alt. Az. Time Alt. Az. Time Alt. Az.
15 Aug 6.7 18:35:04 10° NNW 18:39:01 22° NNE 18:42:59 10° ENE visible
15 Aug 6.6 20:19:20 10° WNW 20:22:10 34° WNW 20:22:10 34° WNW visible
16 Aug 7.5 05:14:31 10° S 05:15:52 11° SSE 05:17:13 10° SE visible
16 Aug 5.4 19:19:03 10° NW 19:24:01 55° NNE 19:25:35 39° E visible
17 Aug 6.0 18:18:55 10° NW 18:23:34 36° NNE 18:28:15 10° E visible
17 Aug 5.9 20:03:56 10° WNW 20:07:50 46° WSW 20:07:50 46° WSW visible
18 Aug 7.2 04:57:15 10° SSW 05:00:35 17° SSE 05:03:54 10° ESE visible
18 Aug 5.1 19:03:23 10° WNW 19:08:29 86° SSW 19:11:18 27° ESE visible
18 Aug 8.1 20:49:54 10° WSW 20:50:07 11° WSW 20:50:07 11° WSW visible
19 Aug 7.6 04:00:25 12° SSE 04:00:25 12° SSE 04:02:01 10° SE visible
19 Aug 6.2 19:48:50 10° W 19:53:24 33° SSW 19:53:35 33° SSW visible
20 Aug 6.6 04:42:40 19° SSW 04:45:09 27° SSE 04:49:29 10° E visible
20 Aug 5.7 18:48:01 10° W 18:52:56 49° SSW 18:57:03 14° SE visible
20 Aug 7.9 20:35:41 10° SW 20:35:52 10° SW 20:35:52 10° SW visible
21 Aug 7.4 03:46:06 17° SE 03:46:06 17° SE 03:48:13 10° ESE visible
21 Aug 5.4 05:24:58 10° WSW 05:30:06 67° SSE 05:35:12 10° ENE visible
21 Aug 6.9 19:34:09 10° WSW 19:37:55 21° SSW 19:39:20 19° S visible
22 Aug 5.8 04:28:23 37° SSW 04:29:37 44° SSE 04:34:31 10° E visible
22 Aug 6.6 18:32:59 10° W 18:37:23 29° SSW 18:41:48 10° SE visible
23 Aug 7.5 03:31:50 19° ESE 03:31:50 19° ESE 03:33:36 10° E visible
23 Aug 5.2 05:10:39 18° WSW 05:14:29 71° NNW 05:19:37 10° ENE visible
23 Aug 7.4 19:20:07 10° SW 19:22:31 13° SSW 19:24:54 10° S visible
24 Aug 5.1 04:14:06 76° SE 04:14:06 76° SE 04:19:09 10° ENE visible
